Simultaneous Nadir Overpasses (SNOs) Predictions

Prediction of SNOs between AQUA and METOP-A Satellite Orbit:

Table of predicted SNOs for the next 14.0 days since TLE Epoch: 11/8/2013
Index Date (AQUA) Time (AQUA) Lat,Lon (AQUA) SZA (AQUA ) Date (METOP-A) Time (METOP-A) Lat,Lon (METOP-A) SZA (METOP-A ) Distance(km) Time Diff (sec)
1 11/09/2013 10:16:13 -73.65,-159.46 89.49 11/09/2013 10:15:01 -73.58,-160.31 89.55 27.72 72
2 11/09/2013 11:05:45 73.87, 7.69 90.75 11/09/2013 11:05:35 73.85, 7.67 90.74 2.25 10
3 11/09/2013 11:55:12 -73.95, 175.16 89.16 11/09/2013 11:56:15 -73.95, 175.24 89.16 2.50 63
4 11/12/2013 05:50:34 -73.68, -93.12 88.67 11/12/2013 05:49:22 -73.58, -93.88 88.76 26.22 72
5 11/12/2013 06:40:05 73.86, 74.13 91.52 11/12/2013 06:39:56 73.85, 74.09 91.52 1.49 9
6 11/12/2013 07:29:32 -73.93,-118.39 88.40 11/12/2013 07:30:37 -73.91,-118.45 88.42 3.24 65
7 11/15/2013 01:24:54 -73.72, -26.78 87.89 11/15/2013 01:23:41 -73.68, -27.24 87.92 14.98 73
8 11/15/2013 02:14:24 73.84, 140.58 92.25 11/15/2013 02:14:17 73.85, 140.49 92.26 2.82 7
9 11/15/2013 03:03:51 -73.92, -51.94 87.67 11/15/2013 03:04:58 -73.91, -52.04 87.68 3.47 67
10 11/17/2013 20:59:13 -73.80, 39.46 87.11 11/17/2013 20:57:59 -73.77, 39.39 87.13 4.28 74
11 11/17/2013 21:48:42 73.89,-153.09 92.99 11/17/2013 21:48:36 73.88,-153.01 92.99 2.34 6
12 11/17/2013 22:38:09 -73.95, 14.41 86.94 11/17/2013 22:39:17 -73.95, 14.47 86.95 1.94 68
13 11/20/2013 16:33:30 -73.79, 105.92 86.47 11/20/2013 16:32:19 -73.80, 105.88 86.45 2.30 71
14 11/20/2013 17:22:59 73.87, -86.63 93.63 11/20/2013 17:22:57 73.86, -86.64 93.62 1.08 2




NCC Satellite Simultaneous Nadir Overpasses (SNOs) Prediction Service
